• In Hungary
  • List of Countries
  • For 7 days
  • Water Temperature
  • Satellite Maps
  • Weather Map
  • News
  • Weather Widgets
  • user-avatar
    Login

    Hourly Weather Ivanpole

    Today, 20 October, Saturday

    Time Temperature Precipitation Wind Pressure Humidity
    00:00 +12°C° 0 mm 2 mps 750 mmHg 89%
    01:00 +12°C° 0 mm 2 mps 750 mmHg 91%
    02:00 +10°C° 0 mm 2 mps 750 mmHg 94%
    03:00 +10°C° 0 mm 2 mps 750 mmHg 95%
    04:00 +9°C° 0 mm 2 mps 751 mmHg 95%
    05:00 +9°C° 0 mm 2 mps 751 mmHg 96%
    06:00 +9°C° 0 mm 3 mps 751 mmHg 94%
    07:00 +9°C° 0 mm 3 mps 751 mmHg 92%
    08:00 +10°C° 0 mm 3 mps 752 mmHg 88%
    09:00 +11°C° 0 mm 3 mps 752 mmHg 82%
    10:00 +12°C° 0 mm 3 mps 752 mmHg 76%
    11:00 +13°C° 0 mm 3 mps 752 mmHg 69%
    12:00 +14°C° 0 mm 3 mps 752 mmHg 66%
    13:00 +14°C° 0 mm 3 mps 752 mmHg 63%
    14:00 +13°C° 0 mm 3 mps 752 mmHg 61%
    15:00 +13°C° 0 mm 2 mps 752 mmHg 64%
    16:00 +12°C° 0 mm 2 mps 752 mmHg 67%
    17:00 +10°C° 0 mm 2 mps 752 mmHg 70%
    18:00 +10°C° 0 mm 2 mps 752 mmHg 71%
    19:00 +9°C° 0 mm 2 mps 752 mmHg 72%
    20:00 +8°C° 0 mm 2 mps 752 mmHg 73%
    21:00 +8°C° 0 mm 2 mps 752 mmHg 74%
    22:00 +7°C° 0 mm 2 mps 752 mmHg 74%
    23:00 +7°C° 0 mm 2 mps 752 mmHg 75%

    Tomorrow, 21 October, Sunday

    Time Temperature Precipitation Wind Pressure Humidity
    00:00 +6°C° 0 mm 2 mps 752 mmHg 76%
    01:00 +6°C° 0 mm 2 mps 752 mmHg 77%
    02:00 +6°C° 0 mm 2 mps 752 mmHg 79%
    03:00 +5°C° 0 mm 2 mps 752 mmHg 80%
    04:00 +5°C° 0 mm 2 mps 752 mmHg 81%
    05:00 +5°C° 0 mm 2 mps 752 mmHg 82%
    06:00 +4°C° 0 mm 3 mps 753 mmHg 81%
    07:00 +4°C° 0 mm 3 mps 753 mmHg 79%
    08:00 +5°C° 0 mm 3 mps 753 mmHg 77%
    09:00 +7°C° 0 mm 3 mps 754 mmHg 71%
    10:00 +9°C° 0 mm 3 mps 754 mmHg 65%
    11:00 +10°C° 0 mm 3 mps 754 mmHg 59%
    12:00 +11°C° 0 mm 3 mps 754 mmHg 56%
    13:00 +11°C° 0 mm 3 mps 754 mmHg 54%
    14:00 +12°C° 0 mm 3 mps 754 mmHg 52%
    15:00 +10°C° 0 mm 3 mps 754 mmHg 58%
    16:00 +9°C° 0 mm 3 mps 754 mmHg 63%
    17:00 +8°C° 0 mm 2 mps 755 mmHg 69%
    18:00 +7°C° 0 mm 2 mps 755 mmHg 72%
    19:00 +6°C° 0 mm 2 mps 755 mmHg 75%
    20:00 +6°C° 0 mm 2 mps 755 mmHg 78%
    21:00 +5°C° 0 mm 2 mps 755 mmHg 80%
    22:00 +5°C° 0 mm 2 mps 756 mmHg 82%
    23:00 +5°C° 0 mm 2 mps 756 mmHg 84%

    Day after tomorrow, 22 October, Monday

    Time Temperature Precipitation Wind Pressure Humidity
    00:00 +4°C° 0 mm 2 mps 756 mmHg 85%
    01:00 +4°C° 0 mm 2 mps 756 mmHg 87%
    02:00 +4°C° 0 mm 2 mps 755 mmHg 88%
    03:00 +3°C° 0 mm 2 mps 755 mmHg 89%
    04:00 +3°C° 0 mm 2 mps 755 mmHg 90%
    05:00 +3°C° 0 mm 2 mps 755 mmHg 91%
    06:00 +3°C° 0 mm 2 mps 756 mmHg 89%
    07:00 +4°C° 0 mm 2 mps 756 mmHg 87%
    08:00 +4°C° 0 mm 2 mps 756 mmHg 85%
    09:00 +7°C° 0 mm 1 mps 755 mmHg 77%
    10:00 +9°C° 0 mm 1 mps 755 mmHg 69%
    11:00 +10°C° 0 mm 1 mps 755 mmHg 61%
    12:00 +11°C° 0 mm 1 mps 754 mmHg 58%
    13:00 +11°C° 0 mm 1 mps 754 mmHg 55%
    14:00 +12°C° 0 mm 1 mps 753 mmHg 51%
    15:00 +11°C° 0 mm 1 mps 753 mmHg 56%
    16:00 +9°C° 0 mm 1 mps 753 mmHg 60%
    17:00 +8°C° 0 mm 1 mps 752 mmHg 65%
    18:00 +8°C° 0 mm 1 mps 752 mmHg 67%
    19:00 +7°C° 0 mm 1 mps 752 mmHg 69%
    20:00 +6°C° 0 mm 1 mps 752 mmHg 70%
    21:00 +6°C° 0 mm 1 mps 751 mmHg 71%
    22:00 +6°C° 0 mm 1 mps 751 mmHg 72%
    23:00 +5°C° 0 mm 2 mps 751 mmHg 72%

    23 October, Tuesday

    Time Temperature Precipitation Wind Pressure Humidity
    00:00 +4°C° 0 mm 2 mps 750 mmHg 73%
    01:00 +4°C° 0 mm 2 mps 750 mmHg 75%
    02:00 +4°C° 0 mm 2 mps 749 mmHg 76%
    03:00 +3°C° 0 mm 2 mps 749 mmHg 79%
    04:00 +3°C° 0 mm 2 mps 748 mmHg 81%
    05:00 +2°C° 0 mm 3 mps 748 mmHg 84%
    06:00 +2°C° 0 mm 3 mps 747 mmHg 84%
    07:00 +3°C° 0 mm 3 mps 747 mmHg 84%
    08:00 +3°C° 0 mm 3 mps 747 mmHg 84%
    09:00 +4°C° 0.1 mm 4 mps 746 mmHg 82%
    10:00 +5°C° 0.1 mm 4 mps 746 mmHg 80%
    11:00 +6°C° 0.1 mm 4 mps 746 mmHg 79%
    12:00 +6°C° 0.2 mm 4 mps 745 mmHg 78%
    13:00 +7°C° 0.2 mm 4 mps 745 mmHg 77%
    14:00 +7°C° 0.2 mm 4 mps 744 mmHg 77%
    15:00 +7°C° 0 mm 3 mps 744 mmHg 76%
    16:00 +7°C° 0 mm 3 mps 743 mmHg 75%
    17:00 +7°C° 0 mm 3 mps 743 mmHg 74%
    18:00 +5°C° 0 mm 3 mps 742 mmHg 73%
    19:00 +5°C° 0 mm 3 mps 741 mmHg 73%
    20:00 +4°C° 0 mm 3 mps 741 mmHg 72%
    21:00 +4°C° 0 mm 4 mps 740 mmHg 72%
    22:00 +4°C° 0 mm 4 mps 739 mmHg 71%
    23:00 +3°C° 0 mm 5 mps 738 mmHg 71%

    24 October, Wednesday

    Time Temperature Precipitation Wind Pressure Humidity
    00:00 +3°C° 0.2 mm 6 mps 737 mmHg 73%
    01:00 +3°C° 0.2 mm 6 mps 735 mmHg 75%
    02:00 +3°C° 0.2 mm 7 mps 734 mmHg 77%
    03:00 +3°C° 0.7 mm 7 mps 732 mmHg 78%
    04:00 +4°C° 0.7 mm 7 mps 731 mmHg 80%
    05:00 +4°C° 0.7 mm 8 mps 730 mmHg 81%
    06:00 +4°C° 0.6 mm 7 mps 729 mmHg 83%
    07:00 +4°C° 0.6 mm 7 mps 728 mmHg 84%
    08:00 +4°C° 0.6 mm 7 mps 727 mmHg 86%
    09:00 +5°C° 0.7 mm 6 mps 726 mmHg 85%
    10:00 +5°C° 0.7 mm 6 mps 726 mmHg 85%
    11:00 +6°C° 0.7 mm 5 mps 726 mmHg 85%
    12:00 +6°C° 0.3 mm 5 mps 726 mmHg 81%
    13:00 +6°C° 0.3 mm 5 mps 726 mmHg 78%
    14:00 +6°C° 0.3 mm 5 mps 726 mmHg 75%
    15:00 +6°C° 0.2 mm 5 mps 727 mmHg 74%
    16:00 +5°C° 0.2 mm 5 mps 727 mmHg 73%
    17:00 +4°C° 0.2 mm 4 mps 728 mmHg 73%
    18:00 +4°C° 0 mm 4 mps 728 mmHg 73%
    19:00 +4°C° 0 mm 4 mps 728 mmHg 74%
    20:00 +3°C° 0 mm 4 mps 728 mmHg 74%
    21:00 +3°C° 0 mm 4 mps 728 mmHg 77%
    22:00 +1°C° 0 mm 4 mps 728 mmHg 79%
    23:00 +1°C° 0 mm 4 mps 728 mmHg 82%

    25 October, Thursday

    Time Temperature Precipitation Wind Pressure Humidity
    00:00 +1°C° 0 mm 4 mps 728 mmHg 83%
    01:00 +2°C° 0 mm 3 mps 728 mmHg 85%
    02:00 +2°C° 0 mm 3 mps 729 mmHg 86%
    03:00 +2°C° 0.1 mm 3 mps 729 mmHg 87%
    04:00 +3°C° 0.1 mm 3 mps 729 mmHg 88%
    05:00 +3°C° 0.1 mm 4 mps 729 mmHg 89%
    06:00 +3°C° 0.2 mm 4 mps 729 mmHg 87%
    07:00 +3°C° 0.2 mm 5 mps 729 mmHg 85%
    08:00 +3°C° 0.2 mm 6 mps 730 mmHg 83%
    09:00 +4°C° 0.1 mm 7 mps 730 mmHg 79%
    10:00 +4°C° 0.1 mm 7 mps 731 mmHg 74%
    11:00 +4°C° 0.1 mm 8 mps 732 mmHg 70%
    12:00 +4°C° 0 mm 8 mps 732 mmHg 68%
    13:00 +4°C° 0 mm 7 mps 733 mmHg 67%
    14:00 +4°C° 0 mm 7 mps 733 mmHg 65%
    15:00 +4°C° 0 mm 6 mps 734 mmHg 67%
    16:00 +3°C° 0 mm 6 mps 734 mmHg 69%
    17:00 +3°C° 0 mm 5 mps 735 mmHg 70%
    18:00 +3°C° 0.1 mm 5 mps 735 mmHg 71%
    19:00 +3°C° 0.1 mm 5 mps 735 mmHg 72%
    20:00 +3°C° 0.1 mm 5 mps 735 mmHg 73%
    21:00 +3°C° 0 mm 5 mps 735 mmHg 74%
    22:00 +3°C° 0 mm 4 mps 735 mmHg 76%
    23:00 +3°C° 0 mm 4 mps 735 mmHg 77%
    Show more